| time (UTC) | temp F | wind direction | speed MPH | gust MPH | rain 1hr in | rain 24hr in | rain mn in | humidity % | barometer mb |
| 20260906000018 | 67 | 0.0 | 3.0 | 0.00 | 0.00 | 0.00 | 65 | 1015.7 | |
| 20260905233017 | 67 | 0.0 | 3.0 | 0.00 | 0.00 | 0.00 | 64 | 1016.1 | |
| 20260905230018 | 66 | 0.0 | 3.0 | 0.00 | 0.00 | 0.00 | 67 | 1016.2 | |
| 20260905223022 | 66 | 0.0 | 2.0 | 0.00 | 0.00 | 0.00 | 69 | 1016.5 | |
| 20260905220022 | 67 | 0.0 | 3.0 | 0.00 | 0.00 | 0.00 | 65 | 1016.7 | |
| 20260905213017 | 66 | 0.0 | 3.0 | 0.00 | 0.00 | 0.00 | 68 | 1016.9 | |
| 20260905210017 | 65 | 0.0 | 3.0 | 0.00 | 0.00 | 0.00 | 71 | 1017.1 | |
| 20260905203022 | 65 | 0.0 | 3.0 | 0.00 | 0.00 | 0.00 | 71 | 1017.1 | |
| 20260905200022 | 65 | 0.0 | 5.0 | 0.00 | 0.00 | 0.00 | 69 | 1017.2 | |
| 20260905193017 | 64 | 0.0 | 3.0 | 0.00 | 0.00 | 0.00 | 68 | 1017.5 | |
| 20260905190022 | 63 | 0.0 | 4.0 | 0.00 | 0.00 | 0.00 | 71 | 1017.4 | |
| 20260905183017 | 62 | 0.0 | 3.0 | 0.00 | 0.00 | 0.00 | 77 | 1017.6 | |
| 20260905180017 | 60 | 0.0 | 1.0 | 0.00 | 0.00 | 0.00 | 75 | 1017.9 | |
| 20260905173021 | 60 | 0.0 | 1.0 | 0.00 | 0.00 | 0.00 | 76 | 1017.8 | |
| 20260905170021 | 58 | 0.0 | 1.0 | 0.00 | 0.00 | 0.00 | 80 | 1017.6 | |
| 20260905163024 | 58 | 0.0 | 1.0 | 0.00 | 0.00 | 0.00 | 81 | 1017.6 | |
| 20260905160016 | 57 | 0.0 | 1.0 | 0.00 | 0.00 | 0.00 | 84 | 1017.6 | |
| 20260905153021 | 55 | 0.0 | 1.0 | 0.00 | 0.00 | 0.00 | 89 | 1017.7 | |
| 20260905150021 | 53 | 0.0 | 0.0 | 0.00 | 0.00 | 0.00 | 94 | 1017.5 | |
| 20260905143021 | 52 | 0.0 | 0.0 | 0.00 | 0.00 | 0.00 | 94 | 1017.2 | |
| 20260905140021 | 52 | 0.0 | 0.0 | 0.00 | 0.00 | 0.00 | 94 | 1016.9 | |
| 20260905133021 | 51 | 0.0 | 0.0 | 0.00 | 0.00 | 0.00 | 94 | 1016.9 | |
| 20260905130021 | 51 | 0.0 | 0.0 | 0.00 | 0.00 | 0.00 | 93 | 1016.9 | |
| 20260905123021 | 51 | 0.0 | 0.0 | 0.00 | 0.00 | 0.00 | 93 | 1016.8 | |
| 20260905120021 | 52 | 0.0 | 0.0 | 0.00 | 0.00 | 0.00 | 93 | 1016.7 | |
| 20260905113020 | 52 | 0.0 | 0.0 | 0.00 | 0.00 | 0.00 | 93 | 1016.7 | |
| 20260905110015 | 52 | 0.0 | 0.0 | 0.00 | 0.00 | 0.00 | 93 | 1016.6 | |
| 20260905103018 | 53 | 0.0 | 0.0 | 0.00 | 0.00 | 0.00 | 92 | 1016.4 | |
| 20260905100018 | 53 | 0.0 | 0.0 | 0.00 | 0.00 | 0.00 | 92 | 1016.2 | |
| 20260905093022 | 54 | 0.0 | 0.0 | 0.00 | 0.00 | 0.00 | 91 | 1016.2 | |
| 20260905090022 | 54 | 0.0 | 0.0 | 0.00 | 0.00 | 0.00 | 91 | 1016.2 | |
| 20260905083018 | 54 | 0.0 | 0.0 | 0.00 | 0.00 | 0.00 | 91 | 1016.1 | |
| 20260905080017 | 55 | 0.0 | 0.0 | 0.00 | 0.00 | 0.00 | 90 | 1016.1 | |
| 20260905073022 | 55 | 0.0 | 0.0 | 0.00 | 0.00 | 0.00 | 89 | 1016.0 | |
| 20260905070017 | 56 | 0.0 | 0.0 | 0.00 | 0.02 | 0.00 | 87 | 1015.8 | |
| 20260905063021 | 57 | 0.0 | 0.0 | 0.00 | 0.02 | 0.00 | 87 | 1015.7 | |
| 20260905060016 | 58 | 0.0 | 0.0 | 0.00 | 0.02 | 0.00 | 84 | 1015.4 | |
| 20260905053021 | 59 | 0.0 | 1.0 | 0.00 | 0.02 | 0.00 | 82 | 1015.2 | |
| 20260905050016 | 60 | 0.0 | 1.0 | 0.00 | 0.02 | 0.00 | 80 | 1015.3 | |
| 20260905043021 | 60 | 0.0 | 2.0 | 0.00 | 0.02 | 0.00 | 79 | 1015.2 | |
| 20260905040021 | 61 | 0.0 | 4.0 | 0.00 | 0.02 | 0.00 | 77 | 1015.4 | |
| 20260905033015 | 61 | 90 | 1.0 | 4.0 | 0.00 | 0.02 | 0.00 | 76 | 1015.3 |
| 20260905030015 | 62 | 0.0 | 2.0 | 0.00 | 0.03 | 0.00 | 74 | 1015.0 | |
| 20260905023016 | 63 | 0.0 | 2.0 | 0.00 | 0.03 | 0.00 | 73 | 1014.8 | |
| 20260905020015 | 64 | 90 | 1.0 | 4.0 | 0.00 | 0.09 | 0.00 | 71 | 1014.7 |
| 20260905013023 | 65 | 0.0 | 2.0 | 0.00 | 0.09 | 0.00 | 70 | 1014.7 | |
| 20260905010022 | 68 | 0.0 | 3.0 | 0.00 | 0.09 | 0.00 | 64 | 1014.1 | |
| 20260905003017 | 68 | 0.0 | 3.0 | 0.00 | 0.09 | 0.00 | 64 | 1013.7 |